EN

Hourly Weather Bolshoe Myakishevo

Today, 23 October, Friday

Time Temperature Precipitation Wind Pressure Humidity
00:00 +5°C° 0.5 mm 4 mps 736 mmHg 96%
01:00 +5°C° 0.5 mm 3 mps 735 mmHg 97%
02:00 +7°C° 0.5 mm 3 mps 735 mmHg 97%
03:00 +7°C° 0.7 mm 3 mps 735 mmHg 97%
04:00 +7°C° 0.7 mm 3 mps 734 mmHg 97%
05:00 +8°C° 0.7 mm 3 mps 734 mmHg 97%
06:00 +8°C° 0.5 mm 4 mps 734 mmHg 94%
07:00 +8°C° 0.5 mm 4 mps 734 mmHg 91%
08:00 +9°C° 0.5 mm 5 mps 735 mmHg 88%
09:00 +9°C° 0 mm 5 mps 735 mmHg 85%
10:00 +10°C° 0 mm 5 mps 735 mmHg 82%
11:00 +10°C° 0 mm 5 mps 735 mmHg 79%
12:00 +10°C° 0.1 mm 5 mps 735 mmHg 80%
13:00 +10°C° 0.1 mm 5 mps 736 mmHg 82%
14:00 +11°C° 0.1 mm 4 mps 736 mmHg 83%
15:00 +10°C° 0.1 mm 4 mps 735 mmHg 84%
16:00 +10°C° 0.1 mm 4 mps 735 mmHg 84%
17:00 +10°C° 0.1 mm 4 mps 735 mmHg 85%
18:00 +8°C° 0.1 mm 4 mps 735 mmHg 87%
19:00 +8°C° 0.1 mm 4 mps 735 mmHg 90%
20:00 +8°C° 0.1 mm 4 mps 734 mmHg 92%
21:00 +8°C° 0.4 mm 4 mps 734 mmHg 92%
22:00 +8°C° 0.4 mm 4 mps 734 mmHg 91%
23:00 +8°C° 0.4 mm 4 mps 734 mmHg 91%

Tomorrow, 24 October, Saturday

Time Temperature Precipitation Wind Pressure Humidity
00:00 +8°C° 0.1 mm 4 mps 735 mmHg 90%
01:00 +8°C° 0.1 mm 4 mps 735 mmHg 88%
02:00 +7°C° 0.1 mm 5 mps 735 mmHg 86%
03:00 +7°C° 0 mm 4 mps 736 mmHg 85%
04:00 +6°C° 0 mm 4 mps 736 mmHg 85%
05:00 +6°C° 0 mm 4 mps 737 mmHg 84%
06:00 +6°C° 0 mm 4 mps 738 mmHg 84%
07:00 +5°C° 0 mm 3 mps 738 mmHg 85%
08:00 +5°C° 0 mm 3 mps 739 mmHg 85%
09:00 +5°C° 0 mm 3 mps 739 mmHg 82%
10:00 +7°C° 0 mm 3 mps 740 mmHg 79%
11:00 +8°C° 0 mm 3 mps 740 mmHg 76%
12:00 +7°C° 0 mm 3 mps 741 mmHg 75%
13:00 +7°C° 0 mm 3 mps 741 mmHg 73%
14:00 +5°C° 0 mm 4 mps 741 mmHg 72%
15:00 +4°C° 0 mm 3 mps 741 mmHg 76%
16:00 +4°C° 0 mm 2 mps 741 mmHg 81%
17:00 +3°C° 0 mm 2 mps 741 mmHg 85%
18:00 +3°C° 0 mm 2 mps 741 mmHg 87%
19:00 +3°C° 0 mm 2 mps 742 mmHg 89%
20:00 +3°C° 0 mm 1 mps 742 mmHg 91%
21:00 +3°C° 0 mm 1 mps 742 mmHg 92%
22:00 +3°C° 0 mm 1 mps 742 mmHg 93%
23:00 +3°C° 0 mm 1 mps 742 mmHg 95%

Day after tomorrow, 25 October, Sunday

Time Temperature Precipitation Wind Pressure Humidity
00:00 +3°C° 0 mm 1 mps 742 mmHg 95%
01:00 +3°C° 0 mm 1 mps 742 mmHg 96%
02:00 +3°C° 0 mm 1 mps 742 mmHg 96%
03:00 +4°C° 0.1 mm 1 mps 742 mmHg 96%
04:00 +4°C° 0.1 mm 1 mps 741 mmHg 96%
05:00 +4°C° 0.1 mm 2 mps 741 mmHg 96%
06:00 +4°C° 0.6 mm 2 mps 741 mmHg 96%
07:00 +5°C° 0.6 mm 1 mps 741 mmHg 97%
08:00 +6°C° 0.6 mm 1 mps 741 mmHg 97%
09:00 +6°C° 1 mm 1 mps 742 mmHg 97%
10:00 +6°C° 1 mm 1 mps 742 mmHg 97%
11:00 +6°C° 1 mm 1 mps 742 mmHg 97%
12:00 +5°C° 0 mm 2 mps 743 mmHg 96%
13:00 +6°C° 0 mm 2 mps 744 mmHg 94%
14:00 +5°C° 0 mm 3 mps 744 mmHg 93%
15:00 +4°C° 0 mm 3 mps 745 mmHg 93%
16:00 +4°C° 0 mm 3 mps 746 mmHg 92%
17:00 +4°C° 0 mm 2 mps 746 mmHg 92%
18:00 +4°C° 0 mm 2 mps 747 mmHg 92%
19:00 +3°C° 0 mm 2 mps 748 mmHg 92%
20:00 +2°C° 0 mm 2 mps 748 mmHg 91%
21:00 +2°C° 0 mm 2 mps 749 mmHg 92%
22:00 +1°C° 0 mm 2 mps 749 mmHg 93%
23:00 +2°C° 0 mm 1 mps 750 mmHg 94%

, 26 October, Monday

Time Temperature Precipitation Wind Pressure Humidity
00:00 +2°C° 0 mm 1 mps 750 mmHg 94%
01:00 +2°C° 0 mm 1 mps 751 mmHg 95%
02:00 +1°C° 0 mm 1 mps 751 mmHg 95%
03:00 +1°C° 0 mm 1 mps 751 mmHg 95%
04:00 +1°C° 0 mm 1 mps 752 mmHg 94%
05:00 +1°C° 0 mm 1 mps 752 mmHg 94%
06:00 +2°C° 0 mm 1 mps 752 mmHg 93%
07:00 +3°C° 0 mm 1 mps 752 mmHg 92%
08:00 +4°C° 0 mm 1 mps 753 mmHg 90%
09:00 +4°C° 0 mm 2 mps 753 mmHg 88%
10:00 +5°C° 0 mm 2 mps 753 mmHg 87%
11:00 +6°C° 0 mm 2 mps 754 mmHg 85%
12:00 +6°C° 0 mm 2 mps 754 mmHg 86%
13:00 +6°C° 0 mm 2 mps 754 mmHg 87%
14:00 +7°C° 0 mm 2 mps 754 mmHg 88%
15:00 +6°C° 0 mm 2 mps 754 mmHg 90%
16:00 +5°C° 0 mm 2 mps 754 mmHg 92%
17:00 +5°C° 0 mm 2 mps 754 mmHg 94%
18:00 +5°C° 0 mm 2 mps 754 mmHg 94%
19:00 +4°C° 0 mm 2 mps 754 mmHg 94%
20:00 +4°C° 0 mm 2 mps 755 mmHg 94%
21:00 +4°C° 0 mm 2 mps 755 mmHg 94%
22:00 +4°C° 0 mm 2 mps 755 mmHg 94%
23:00 +4°C° 0 mm 2 mps 755 mmHg 94%

26 October, Monday

Time Temperature Precipitation Wind Pressure Humidity
00:00 +2°C° 0 mm 1 mps 750 mmHg 94%
01:00 +2°C° 0 mm 1 mps 751 mmHg 95%
02:00 +1°C° 0 mm 1 mps 751 mmHg 95%
03:00 +1°C° 0 mm 1 mps 751 mmHg 95%
04:00 +1°C° 0 mm 1 mps 752 mmHg 94%
05:00 +1°C° 0 mm 1 mps 752 mmHg 94%
06:00 +2°C° 0 mm 1 mps 752 mmHg 93%
07:00 +3°C° 0 mm 1 mps 752 mmHg 92%
08:00 +4°C° 0 mm 1 mps 753 mmHg 90%
09:00 +4°C° 0 mm 2 mps 753 mmHg 88%
10:00 +5°C° 0 mm 2 mps 753 mmHg 87%
11:00 +6°C° 0 mm 2 mps 754 mmHg 85%
12:00 +6°C° 0 mm 2 mps 754 mmHg 86%
13:00 +6°C° 0 mm 2 mps 754 mmHg 87%
14:00 +7°C° 0 mm 2 mps 754 mmHg 88%
15:00 +6°C° 0 mm 2 mps 754 mmHg 90%
16:00 +5°C° 0 mm 2 mps 754 mmHg 92%
17:00 +5°C° 0 mm 2 mps 754 mmHg 94%
18:00 +5°C° 0 mm 2 mps 754 mmHg 94%
19:00 +4°C° 0 mm 2 mps 754 mmHg 94%
20:00 +4°C° 0 mm 2 mps 755 mmHg 94%
21:00 +4°C° 0 mm 2 mps 755 mmHg 94%
22:00 +4°C° 0 mm 2 mps 755 mmHg 94%
23:00 +4°C° 0 mm 2 mps 755 mmHg 94%

27 October, Tuesday

Time Temperature Precipitation Wind Pressure Humidity
00:00 +3°C° 0 mm 2 mps 755 mmHg 94%
01:00 +3°C° 0 mm 2 mps 755 mmHg 95%
02:00 +3°C° 0 mm 2 mps 755 mmHg 95%
03:00 +3°C° 0 mm 2 mps 755 mmHg 95%
04:00 +3°C° 0 mm 2 mps 755 mmHg 95%
05:00 +3°C° 0 mm 2 mps 755 mmHg 95%
06:00 +2°C° 0 mm 3 mps 755 mmHg 93%
07:00 +2°C° 0 mm 3 mps 755 mmHg 92%
08:00 +2°C° 0 mm 3 mps 755 mmHg 91%
09:00 +3°C° 0 mm 3 mps 754 mmHg 88%
10:00 +4°C° 0 mm 4 mps 754 mmHg 84%
11:00 +5°C° 0 mm 4 mps 754 mmHg 81%
12:00 +5°C° 0 mm 4 mps 754 mmHg 80%
13:00 +6°C° 0 mm 4 mps 754 mmHg 79%
14:00 +6°C° 0 mm 4 mps 753 mmHg 79%
15:00 +5°C° 0 mm 4 mps 753 mmHg 80%
16:00 +5°C° 0 mm 4 mps 753 mmHg 81%
17:00 +5°C° 0 mm 4 mps 752 mmHg 83%
18:00 +5°C° 0 mm 4 mps 752 mmHg 83%
19:00 +5°C° 0 mm 4 mps 752 mmHg 83%
20:00 +5°C° 0 mm 4 mps 752 mmHg 83%
21:00 +5°C° 0.2 mm 4 mps 751 mmHg 85%
22:00 +5°C° 0.2 mm 4 mps 751 mmHg 87%
23:00 +5°C° 0.2 mm 4 mps 751 mmHg 90%

28 October, Wednesday

Time Temperature Precipitation Wind Pressure Humidity
00:00 +5°C° 0.2 mm 4 mps 751 mmHg 90%
01:00 +6°C° 0.2 mm 4 mps 751 mmHg 90%
02:00 +6°C° 0.2 mm 4 mps 751 mmHg 90%
03:00 +6°C° 0.1 mm 4 mps 750 mmHg 90%
04:00 +5°C° 0.1 mm 4 mps 750 mmHg 90%
05:00 +5°C° 0.1 mm 4 mps 750 mmHg 91%
06:00 +5°C° 0 mm 4 mps 750 mmHg 91%
07:00 +6°C° 0 mm 4 mps 750 mmHg 91%
08:00 +6°C° 0 mm 4 mps 749 mmHg 91%
09:00 +6°C° 0 mm 4 mps 749 mmHg 90%
10:00 +7°C° 0 mm 4 mps 749 mmHg 88%
11:00 +7°C° 0 mm 4 mps 749 mmHg 87%
12:00 +8°C° 0 mm 4 mps 749 mmHg 87%
13:00 +8°C° 0 mm 4 mps 748 mmHg 86%
14:00 +8°C° 0 mm 4 mps 748 mmHg 86%
15:00 +8°C° 0 mm 4 mps 748 mmHg 87%
16:00 +8°C° 0 mm 4 mps 747 mmHg 87%
17:00 +8°C° 0 mm 4 mps 747 mmHg 88%
18:00 +8°C° 0.4 mm 4 mps 747 mmHg 89%
19:00 +8°C° 0.4 mm 5 mps 747 mmHg 90%
20:00 +9°C° 0.4 mm 5 mps 747 mmHg 92%
21:00 +10°C° 0.1 mm 4 mps 747 mmHg 91%
22:00 +10°C° 0.1 mm 4 mps 747 mmHg 91%
23:00 +10°C° 0.1 mm 4 mps 747 mmHg 91%
Show more